EWG92N EGLL-EDDH

Flight info

Callsign EWG92N
Flight time 1h 15m
Altitude 39000
Route BPK Q295 SOMVA DCT MAVAS DCT GASTU DCT OSTOR T904 RIBSO RIBSO7A
Aircraft A320/M-SDE3FGHIRWY/LB1

Departure

Time 2026-05-05 19:26
Airport London Heathrow Airport (EGLL)

Arrival

Time 2026-05-05 20:41
Airport Hamburg Helmut Schmidt Airport (EDDH)
Time Latitude Longitude Altitude Speed Heading
2026-05-05 18:38 51.46820 -0.44680 90 ft 0 kts 267°
2026-05-05 19:00 51.46821 -0.44649 90 ft 4 kts 267°
2026-05-05 19:00 51.46822 -0.44612 89 ft 2 kts 267°
2026-05-05 19:00 51.46824 -0.44573 89 ft 4 kts 248°
2026-05-05 19:00 51.46836 -0.44554 90 ft 3 kts 180°
2026-05-05 19:01 51.46853 -0.44554 89 ft 0 kts 180°
2026-05-05 19:04 51.46849 -0.44554 89 ft 4 kts 180°
2026-05-05 19:04 51.46795 -0.44553 88 ft 8 kts 180°
2026-05-05 19:05 51.46741 -0.44553 86 ft 7 kts 180°
2026-05-05 19:05 51.46694 -0.44553 86 ft 6 kts 180°
2026-05-05 19:05 51.46666 -0.44586 87 ft 5 kts 250°
2026-05-05 19:05 51.46663 -0.44631 87 ft 4 kts 267°
2026-05-05 19:06 51.46663 -0.44696 87 ft 12 kts 270°
2026-05-05 19:06 51.46664 -0.44867 87 ft 16 kts 271°
2026-05-05 19:06 51.46664 -0.45045 86 ft 15 kts 270°
2026-05-05 19:06 51.46663 -0.45213 86 ft 15 kts 269°
2026-05-05 19:07 51.46662 -0.45365 86 ft 13 kts 270°
2026-05-05 19:07 51.46662 -0.45503 86 ft 12 kts 270°
2026-05-05 19:07 51.46661 -0.45627 86 ft 10 kts 270°
2026-05-05 19:07 51.46661 -0.45741 86 ft 11 kts 269°
2026-05-05 19:08 51.46660 -0.45871 86 ft 13 kts 270°
2026-05-05 19:08 51.46660 -0.46032 88 ft 16 kts 269°
2026-05-05 19:08 51.46660 -0.46231 89 ft 20 kts 270°
2026-05-05 19:08 51.46664 -0.46468 86 ft 23 kts 272°
2026-05-05 19:09 51.46659 -0.46727 88 ft 20 kts 268°
2026-05-05 19:09 51.46657 -0.46963 90 ft 22 kts 269°
2026-05-05 19:09 51.46656 -0.47160 86 ft 16 kts 269°
2026-05-05 19:09 51.46655 -0.47341 86 ft 16 kts 270°
2026-05-05 19:10 51.46655 -0.47513 86 ft 15 kts 270°
2026-05-05 19:10 51.46654 -0.47673 86 ft 14 kts 269°
2026-05-05 19:10 51.46653 -0.47815 86 ft 12 kts 270°
2026-05-05 19:10 51.46653 -0.47941 86 ft 11 kts 270°
2026-05-05 19:11 51.46653 -0.48050 86 ft 9 kts 270°
2026-05-05 19:11 51.46653 -0.48107 86 ft 0 kts 270°
2026-05-05 19:13 51.46653 -0.48111 86 ft 3 kts 270°
2026-05-05 19:13 51.46653 -0.48220 86 ft 15 kts 269°
2026-05-05 19:13 51.46652 -0.48368 86 ft 12 kts 269°
2026-05-05 19:14 51.46616 -0.48467 88 ft 11 kts 194°
2026-05-05 19:14 51.46590 -0.48468 87 ft 0 kts 178°
2026-05-05 19:24 51.46573 -0.48467 86 ft 8 kts 177°
2026-05-05 19:24 51.46519 -0.48464 87 ft 7 kts 178°
2026-05-05 19:24 51.46481 -0.48435 91 ft 6 kts 115°
2026-05-05 19:25 51.46479 -0.48382 88 ft 4 kts 90°
2026-05-05 19:25 51.46480 -0.48238 89 ft 40 kts 89°
2026-05-05 19:25 51.46485 -0.47369 88 ft 111 kts 90°
2026-05-05 19:25 51.46495 -0.45828 134 ft 158 kts 86°
2026-05-05 19:26 51.46501 -0.44060 676 ft 166 kts 87°
2026-05-05 19:26 51.46533 -0.42215 1457 ft 167 kts 81°
2026-05-05 19:26 51.46976 -0.40417 1887 ft 186 kts 52°
2026-05-05 19:26 51.47870 -0.38727 2219 ft 211 kts 49°
2026-05-05 19:27 51.48875 -0.36827 2647 ft 235 kts 49°
2026-05-05 19:27 51.49967 -0.34746 3353 ft 249 kts 49°
2026-05-05 19:27 51.51089 -0.32588 4323 ft 254 kts 49°
2026-05-05 19:27 51.52135 -0.30404 5241 ft 259 kts 59°
2026-05-05 19:28 51.52859 -0.27581 5815 ft 267 kts 69°
2026-05-05 19:28 51.53467 -0.24752 5974 ft 268 kts 69°
2026-05-05 19:28 51.54060 -0.21920 6005 ft 267 kts 68°
2026-05-05 19:28 51.55029 -0.19439 6020 ft 263 kts 38°
2026-05-05 19:29 51.56667 -0.18245 6010 ft 261 kts 11°
2026-05-05 19:29 51.58452 -0.17697 6077 ft 262 kts 14°
2026-05-05 19:29 51.60210 -0.16951 6081 ft 262 kts 13°
2026-05-05 19:29 51.61964 -0.16295 6083 ft 262 kts 12°
2026-05-05 19:30 51.63751 -0.15621 6347 ft 266 kts 13°
2026-05-05 19:30 51.65548 -0.14901 7330 ft 266 kts 13°
2026-05-05 19:30 51.67353 -0.14139 8234 ft 271 kts 14°
2026-05-05 19:30 51.69187 -0.13331 9118 ft 275 kts 14°
2026-05-05 19:31 51.71053 -0.12491 9984 ft 281 kts 14°
2026-05-05 19:31 51.72906 -0.11407 10751 ft 288 kts 29°
2026-05-05 19:31 51.74430 -0.09275 11505 ft 296 kts 52°
2026-05-05 19:31 51.75333 -0.06276 12278 ft 303 kts 76°
2026-05-05 19:32 51.75706 -0.02812 12617 ft 325 kts 81°
2026-05-05 19:32 51.76024 0.00914 13003 ft 341 kts 81°
2026-05-05 19:32 51.76324 0.04745 13727 ft 346 kts 82°
2026-05-05 19:32 51.76622 0.08624 14422 ft 350 kts 82°
2026-05-05 19:33 51.76924 0.12539 15121 ft 353 kts 82°
2026-05-05 19:33 51.77233 0.16487 15821 ft 356 kts 82°
2026-05-05 19:33 51.77549 0.20469 16526 ft 359 kts 82°
2026-05-05 19:33 51.77873 0.24483 17223 ft 362 kts 82°
2026-05-05 19:34 51.78203 0.28526 17903 ft 365 kts 82°
2026-05-05 19:34 51.78538 0.32610 18539 ft 368 kts 82°
2026-05-05 19:34 51.78872 0.36729 19089 ft 372 kts 82°
2026-05-05 19:35 51.79542 0.45115 20188 ft 381 kts 82°
2026-05-05 19:35 51.79881 0.49379 20715 ft 385 kts 82°
2026-05-05 19:35 51.80220 0.53686 21361 ft 387 kts 82°
2026-05-05 19:35 51.80559 0.58007 21931 ft 390 kts 82°
2026-05-05 19:36 51.80907 0.62384 22472 ft 395 kts 81°
2026-05-05 19:36 51.81552 0.66715 22954 ft 400 kts 71°
2026-05-05 19:36 51.82601 0.70916 23492 ft 404 kts 66°
2026-05-05 19:36 51.83699 0.75114 23950 ft 407 kts 67°
2026-05-05 19:37 51.84800 0.79346 24390 ft 411 kts 67°
2026-05-05 19:37 51.85911 0.83630 24828 ft 414 kts 68°
2026-05-05 19:37 51.87020 0.87938 25257 ft 417 kts 68°
2026-05-05 19:37 51.88137 0.92296 25672 ft 420 kts 68°
2026-05-05 19:38 51.89264 0.96690 26083 ft 423 kts 68°
2026-05-05 19:38 51.90393 1.01099 26525 ft 425 kts 68°
2026-05-05 19:38 51.91527 1.05534 26957 ft 427 kts 68°
2026-05-05 19:38 51.92666 1.09987 27354 ft 429 kts 69°
2026-05-05 19:39 51.93811 1.14469 27729 ft 432 kts 69°
2026-05-05 19:39 51.94966 1.18994 28094 ft 435 kts 69°
2026-05-05 19:39 51.96125 1.23554 28474 ft 438 kts 69°
2026-05-05 19:39 51.97286 1.28139 28815 ft 441 kts 69°
2026-05-05 19:40 51.98435 1.32696 29140 ft 444 kts 69°
2026-05-05 19:40 51.99607 1.37349 29493 ft 447 kts 69°
2026-05-05 19:40 52.00786 1.42036 29824 ft 450 kts 69°
2026-05-05 19:40 52.01974 1.46763 30130 ft 453 kts 69°
2026-05-05 19:41 52.03161 1.51495 30458 ft 453 kts 70°
2026-05-05 19:41 52.04348 1.56238 30765 ft 455 kts 70°
2026-05-05 19:41 52.05537 1.61006 31008 ft 457 kts 70°
2026-05-05 19:41 52.06732 1.65802 31275 ft 459 kts 70°
2026-05-05 19:42 52.07933 1.70620 31541 ft 460 kts 70°
2026-05-05 19:42 52.09135 1.75448 31881 ft 460 kts 70°
2026-05-05 19:42 52.10330 1.80264 32262 ft 458 kts 70°
2026-05-05 19:42 52.11516 1.85069 32651 ft 457 kts 70°
2026-05-05 19:43 52.12695 1.89865 33021 ft 456 kts 70°
2026-05-05 19:43 52.13870 1.94650 33404 ft 455 kts 71°
2026-05-05 19:43 52.15040 1.99426 33763 ft 454 kts 71°
2026-05-05 19:43 52.16205 2.04191 34117 ft 453 kts 71°
2026-05-05 19:44 52.17369 2.08965 34427 ft 452 kts 71°
2026-05-05 19:44 52.18526 2.13716 34690 ft 452 kts 71°
2026-05-05 19:44 52.19700 2.18551 34943 ft 452 kts 71°
2026-05-05 19:44 52.20845 2.23265 35195 ft 452 kts 71°
2026-05-05 19:45 52.22001 2.28033 35452 ft 453 kts 71°
2026-05-05 19:45 52.23159 2.32817 35674 ft 453 kts 71°
2026-05-05 19:45 52.24316 2.37604 35920 ft 453 kts 71°
2026-05-05 19:45 52.25466 2.42391 36155 ft 453 kts 71°
2026-05-05 19:46 52.26613 2.47181 36346 ft 454 kts 71°
2026-05-05 19:46 52.27766 2.51998 36515 ft 456 kts 71°
2026-05-05 19:46 52.28920 2.56832 36702 ft 457 kts 71°
2026-05-05 19:46 52.30072 2.61674 36912 ft 457 kts 71°
2026-05-05 19:47 52.31112 2.66567 37127 ft 455 kts 76°
2026-05-05 19:47 52.31993 2.71538 37346 ft 455 kts 76°
2026-05-05 19:47 52.32876 2.76517 37546 ft 455 kts 76°
2026-05-05 19:47 52.33753 2.81485 37745 ft 455 kts 76°
2026-05-05 19:48 52.34627 2.86464 37949 ft 455 kts 76°
2026-05-05 19:48 52.35497 2.91445 38147 ft 456 kts 76°
2026-05-05 19:48 52.36364 2.96426 38338 ft 456 kts 76°
2026-05-05 19:48 52.37229 3.01419 38513 ft 455 kts 76°
2026-05-05 19:49 52.38088 3.06400 38678 ft 455 kts 76°
2026-05-05 19:49 52.39852 3.16357 38924 ft 457 kts 71°
2026-05-05 19:50 52.42453 3.25869 38948 ft 459 kts 66°
2026-05-05 19:50 52.45147 3.35364 38949 ft 459 kts 66°
2026-05-05 19:51 52.47813 3.44871 38960 ft 459 kts 67°
2026-05-05 19:51 52.50473 3.54420 38945 ft 460 kts 67°
2026-05-05 19:52 52.53130 3.63978 38949 ft 461 kts 66°
2026-05-05 19:52 52.55793 3.73556 38953 ft 461 kts 67°
2026-05-05 19:53 52.58442 3.83155 38958 ft 461 kts 67°
2026-05-05 19:53 52.61071 3.92695 38961 ft 461 kts 67°
2026-05-05 19:54 52.63717 4.02383 38947 ft 461 kts 67°
2026-05-05 19:54 52.66340 4.12015 38942 ft 461 kts 67°
2026-05-05 19:55 52.68944 4.21611 38946 ft 461 kts 67°
2026-05-05 19:55 52.71561 4.31306 38953 ft 462 kts 67°
2026-05-05 19:56 52.74164 4.40998 38955 ft 462 kts 67°
2026-05-05 19:56 52.76765 4.50703 38944 ft 462 kts 67°
2026-05-05 19:57 52.79369 4.60425 38957 ft 463 kts 67°
2026-05-05 19:57 52.81541 4.68579 38944 ft 463 kts 68°
2026-05-05 19:58 52.84099 4.78263 38956 ft 463 kts 68°
2026-05-05 19:58 52.86666 4.88042 38952 ft 463 kts 68°
2026-05-05 19:59 52.89233 4.97821 38961 ft 463 kts 68°
2026-05-05 19:59 52.91799 5.07599 38953 ft 463 kts 68°
2026-05-05 20:00 52.94354 5.17412 38937 ft 464 kts 67°
2026-05-05 20:00 52.96905 5.27277 38948 ft 465 kts 68°
2026-05-05 20:01 52.99448 5.37134 38939 ft 465 kts 68°
2026-05-05 20:01 53.01985 5.47012 38942 ft 465 kts 68°
2026-05-05 20:02 53.04514 5.56903 38951 ft 465 kts 68°
2026-05-05 20:02 53.07037 5.66819 38946 ft 465 kts 68°
2026-05-05 20:03 53.09551 5.76741 38952 ft 466 kts 68°
2026-05-05 20:03 53.11891 5.86711 38705 ft 466 kts 71°
2026-05-05 20:03 53.12980 5.91794 38449 ft 466 kts 72°
2026-05-05 20:04 53.14043 5.96892 38161 ft 466 kts 72°
2026-05-05 20:04 53.15105 6.01994 37869 ft 467 kts 72°
2026-05-05 20:04 53.16179 6.07093 37608 ft 467 kts 72°
2026-05-05 20:04 53.17267 6.12198 37325 ft 467 kts 72°
2026-05-05 20:05 53.18362 6.17311 37031 ft 468 kts 72°
2026-05-05 20:05 53.19462 6.22425 36762 ft 468 kts 72°
2026-05-05 20:05 53.20563 6.27534 36496 ft 469 kts 72°
2026-05-05 20:05 53.21664 6.32652 36234 ft 469 kts 72°
2026-05-05 20:06 53.22764 6.37791 35965 ft 469 kts 73°
2026-05-05 20:06 53.23857 6.42912 35712 ft 468 kts 73°
2026-05-05 20:06 53.24940 6.48008 35459 ft 466 kts 73°
2026-05-05 20:06 53.26019 6.53103 35205 ft 464 kts 73°
2026-05-05 20:07 53.27088 6.58171 34979 ft 462 kts 73°
2026-05-05 20:07 53.28151 6.63221 34731 ft 460 kts 74°
2026-05-05 20:07 53.29209 6.68271 34465 ft 458 kts 75°
2026-05-05 20:07 53.30259 6.73294 34232 ft 457 kts 75°
2026-05-05 20:08 53.31302 6.78301 33996 ft 456 kts 75°
2026-05-05 20:08 53.32339 6.83303 33716 ft 454 kts 75°
2026-05-05 20:08 53.33374 6.88286 33439 ft 452 kts 75°
2026-05-05 20:08 53.34402 6.93238 33169 ft 450 kts 75°
2026-05-05 20:09 53.35424 6.98173 32901 ft 448 kts 75°
2026-05-05 20:09 53.36440 7.03086 32627 ft 445 kts 75°
2026-05-05 20:09 53.37436 7.07909 32364 ft 443 kts 75°
2026-05-05 20:09 53.38440 7.12782 32114 ft 441 kts 75°
2026-05-05 20:10 53.39435 7.17639 31847 ft 439 kts 75°
2026-05-05 20:10 53.40420 7.22462 31573 ft 437 kts 74°
2026-05-05 20:10 53.41402 7.27274 31320 ft 436 kts 74°
2026-05-05 20:10 53.42377 7.32072 31062 ft 434 kts 74°
2026-05-05 20:11 53.43345 7.36861 30811 ft 432 kts 74°
2026-05-05 20:11 53.44302 7.41625 30529 ft 430 kts 74°
2026-05-05 20:11 53.45257 7.46371 30276 ft 428 kts 74°
2026-05-05 20:11 53.46207 7.51089 30042 ft 427 kts 74°
2026-05-05 20:12 53.47154 7.55797 29765 ft 425 kts 74°
2026-05-05 20:12 53.48096 7.60489 29480 ft 423 kts 74°
2026-05-05 20:12 53.49029 7.65149 29196 ft 420 kts 74°
2026-05-05 20:12 53.49955 7.69801 28922 ft 419 kts 73°
2026-05-05 20:13 53.50872 7.74428 28584 ft 415 kts 73°
2026-05-05 20:13 53.51782 7.79014 28107 ft 412 kts 73°
2026-05-05 20:13 53.52683 7.83573 27648 ft 409 kts 73°
2026-05-05 20:13 53.53575 7.88102 27184 ft 406 kts 73°
2026-05-05 20:14 53.54460 7.92599 26717 ft 403 kts 73°
2026-05-05 20:14 53.55337 7.97066 26250 ft 401 kts 73°
2026-05-05 20:14 53.56197 8.01454 25793 ft 399 kts 73°
2026-05-05 20:14 53.57061 8.05880 25299 ft 397 kts 73°
2026-05-05 20:15 53.57920 8.10282 24819 ft 395 kts 73°
2026-05-05 20:15 53.58776 8.14669 24313 ft 394 kts 73°
2026-05-05 20:15 53.59630 8.19058 23814 ft 394 kts 73°
2026-05-05 20:15 53.60478 8.23433 23265 ft 393 kts 73°
2026-05-05 20:16 53.61323 8.27798 22730 ft 391 kts 73°
2026-05-05 20:16 53.62163 8.32128 22236 ft 388 kts 73°
2026-05-05 20:16 53.62998 8.36442 21734 ft 390 kts 73°
2026-05-05 20:16 53.63842 8.40837 21104 ft 395 kts 73°
2026-05-05 20:17 53.64683 8.45230 20572 ft 394 kts 73°
2026-05-05 20:17 53.65522 8.49620 20082 ft 391 kts 73°
2026-05-05 20:17 53.66346 8.53929 19339 ft 384 kts 73°
2026-05-05 20:17 53.67158 8.58196 18513 ft 379 kts 73°
2026-05-05 20:18 53.67959 8.62403 17641 ft 374 kts 72°
2026-05-05 20:18 53.68745 8.66549 16750 ft 369 kts 72°
2026-05-05 20:18 53.69521 8.70660 15868 ft 366 kts 72°
2026-05-05 20:18 53.70284 8.74723 15049 ft 361 kts 72°
2026-05-05 20:19 53.71035 8.78733 14258 ft 356 kts 72°
2026-05-05 20:19 53.71780 8.82696 13459 ft 352 kts 72°
2026-05-05 20:19 53.72515 8.86606 12597 ft 347 kts 72°
2026-05-05 20:19 53.73236 8.90465 11744 ft 343 kts 72°
2026-05-05 20:20 53.73947 8.94279 10907 ft 339 kts 72°
2026-05-05 20:20 53.74635 8.97976 10635 ft 317 kts 72°
2026-05-05 20:20 53.75281 9.01452 10226 ft 305 kts 72°
2026-05-05 20:20 53.75908 9.04841 9624 ft 300 kts 72°
2026-05-05 20:21 53.76526 9.08184 8961 ft 295 kts 72°
2026-05-05 20:21 53.77130 9.11429 8327 ft 291 kts 72°
2026-05-05 20:21 53.77726 9.14645 7890 ft 278 kts 72°
2026-05-05 20:21 53.78283 9.17670 7761 ft 263 kts 72°
2026-05-05 20:22 53.78812 9.20570 7557 ft 255 kts 72°
2026-05-05 20:22 53.79333 9.23416 7243 ft 252 kts 72°
2026-05-05 20:22 53.79848 9.26231 6975 ft 248 kts 72°
2026-05-05 20:22 53.80321 9.29024 6893 ft 247 kts 79°
2026-05-05 20:23 53.80489 9.31925 6906 ft 248 kts 91°
2026-05-05 20:23 53.80292 9.34824 6906 ft 248 kts 103°
2026-05-05 20:23 53.79741 9.37589 6905 ft 247 kts 116°
2026-05-05 20:23 53.78872 9.40092 6904 ft 247 kts 125°
2026-05-05 20:24 53.77913 9.42488 6620 ft 245 kts 126°
2026-05-05 20:24 53.76757 9.44557 6293 ft 242 kts 144°
2026-05-05 20:24 53.75281 9.45850 6027 ft 238 kts 163°
2026-05-05 20:24 53.73647 9.46248 5989 ft 240 kts 182°
2026-05-05 20:25 53.72008 9.45741 5995 ft 241 kts 200°
2026-05-05 20:25 53.70509 9.44474 5998 ft 241 kts 206°
2026-05-05 20:25 53.68901 9.43766 5993 ft 241 kts 182°
2026-05-05 20:25 53.67239 9.44048 5994 ft 240 kts 165°
2026-05-05 20:26 53.65617 9.44767 5995 ft 241 kts 166°
2026-05-05 20:26 53.63993 9.45439 5995 ft 241 kts 166°
2026-05-05 20:26 53.62380 9.46082 5951 ft 241 kts 166°
2026-05-05 20:26 53.60748 9.46723 5821 ft 240 kts 166°
2026-05-05 20:27 53.59121 9.47361 5699 ft 240 kts 166°
2026-05-05 20:27 53.57495 9.47996 5566 ft 239 kts 166°
2026-05-05 20:27 53.55879 9.48630 5437 ft 239 kts 166°
2026-05-05 20:27 53.54262 9.49266 5309 ft 238 kts 166°
2026-05-05 20:28 53.52649 9.49892 5219 ft 238 kts 168°
2026-05-05 20:28 53.50996 9.49937 5140 ft 239 kts 189°
2026-05-05 20:28 53.49430 9.49006 5063 ft 240 kts 210°
2026-05-05 20:28 53.48151 9.47217 4987 ft 242 kts 229°
2026-05-05 20:29 53.47070 9.45053 4917 ft 242 kts 230°
2026-05-05 20:29 53.45985 9.42886 4835 ft 243 kts 229°
2026-05-05 20:29 53.44895 9.40718 4760 ft 242 kts 229°
2026-05-05 20:29 53.43819 9.38587 4676 ft 235 kts 229°
2026-05-05 20:30 53.42624 9.36784 4589 ft 230 kts 207°
2026-05-05 20:30 53.41105 9.36114 4511 ft 226 kts 178°
2026-05-05 20:30 53.39600 9.36704 4431 ft 223 kts 150°
2026-05-05 20:30 53.38369 9.38256 4357 ft 221 kts 138°
2026-05-05 20:31 53.37220 9.39921 4284 ft 221 kts 133°
2026-05-05 20:31 53.36443 9.42066 4199 ft 215 kts 105°
2026-05-05 20:31 53.36381 9.44548 4081 ft 211 kts 77°
2026-05-05 20:31 53.36989 9.46658 3985 ft 200 kts 51°
2026-05-05 20:32 53.37849 9.48358 4004 ft 182 kts 51°
2026-05-05 20:32 53.38612 9.49897 3975 ft 161 kts 51°
2026-05-05 20:32 53.39291 9.51254 3968 ft 145 kts 51°
2026-05-05 20:32 53.39931 9.52529 3979 ft 142 kts 51°
2026-05-05 20:33 53.40565 9.53790 3976 ft 141 kts 51°
2026-05-05 20:33 53.41202 9.55056 3980 ft 141 kts 51°
2026-05-05 20:33 53.41835 9.56315 3979 ft 141 kts 51°
2026-05-05 20:33 53.42471 9.57580 3986 ft 148 kts 51°
2026-05-05 20:34 53.43214 9.59059 3998 ft 177 kts 51°
2026-05-05 20:34 53.44020 9.60664 4001 ft 181 kts 51°
2026-05-05 20:34 53.44826 9.62269 3998 ft 182 kts 51°
2026-05-05 20:34 53.45641 9.63891 3995 ft 182 kts 51°
2026-05-05 20:35 53.46456 9.65518 4003 ft 182 kts 51°
2026-05-05 20:35 53.47272 9.67146 4007 ft 182 kts 51°
2026-05-05 20:35 53.48099 9.68797 4008 ft 182 kts 51°
2026-05-05 20:35 53.48903 9.70403 3991 ft 183 kts 51°
2026-05-05 20:36 53.49720 9.72039 3841 ft 182 kts 51°
2026-05-05 20:36 53.50532 9.73663 3625 ft 180 kts 51°
2026-05-05 20:36 53.51334 9.75268 3391 ft 178 kts 51°
2026-05-05 20:36 53.52125 9.76853 3157 ft 175 kts 51°
2026-05-05 20:37 53.52904 9.78414 2909 ft 173 kts 51°
2026-05-05 20:37 53.53424 9.79457 2763 ft 172 kts 51°
2026-05-05 20:37 53.54400 9.81416 2451 ft 156 kts 52°
2026-05-05 20:37 53.55065 9.82751 2239 ft 143 kts 52°
2026-05-05 20:38 53.55688 9.84002 2057 ft 137 kts 52°
2026-05-05 20:38 53.56291 9.85216 1874 ft 133 kts 52°
2026-05-05 20:38 53.56883 9.86407 1694 ft 131 kts 52°
2026-05-05 20:38 53.57467 9.87583 1510 ft 132 kts 52°
2026-05-05 20:39 53.58049 9.88754 1331 ft 132 kts 51°
2026-05-05 20:39 53.58642 9.89950 1135 ft 134 kts 51°
2026-05-05 20:39 53.59239 9.91153 946 ft 135 kts 50°
2026-05-05 20:39 53.59850 9.92385 758 ft 138 kts 49°
2026-05-05 20:40 53.60469 9.93625 613 ft 140 kts 50°
2026-05-05 20:40 53.61097 9.94885 389 ft 139 kts 50°
2026-05-05 20:40 53.61720 9.96145 193 ft 140 kts 50°
2026-05-05 20:40 53.62330 9.97388 49 ft 128 kts 50°
2026-05-05 20:41 53.62791 9.98324 50 ft 79 kts 50°
2026-05-05 20:41 53.63077 9.98900 50 ft 56 kts 50°
2026-05-05 20:41 53.63246 9.99239 53 ft 26 kts 50°
2026-05-05 20:41 53.63293 9.99410 51 ft 23 kts 82°
2026-05-05 20:42 53.63287 9.99576 50 ft 10 kts 99°
2026-05-05 20:42 53.63277 9.99673 50 ft 7 kts 99°
2026-05-05 20:42 53.63264 9.99733 48 ft 4 kts 142°
2026-05-05 20:42 53.63240 9.99755 48 ft 4 kts 152°
2026-05-05 20:43 53.63194 9.99791 48 ft 11 kts 155°
2026-05-05 20:43 53.63132 9.99842 50 ft 10 kts 153°
2026-05-05 20:43 53.63076 9.99890 49 ft 8 kts 153°
2026-05-05 20:43 53.63026 9.99933 51 ft 8 kts 153°
2026-05-05 20:44 53.62982 9.99972 50 ft 7 kts 152°
2026-05-05 20:44 53.62951 10.00020 51 ft 6 kts 108°
2026-05-05 20:44 53.62963 10.00068 49 ft 4 kts 39°
2026-05-05 20:44 53.62995 10.00105 51 ft 10 kts 33°
2026-05-05 20:45 53.63088 10.00240 51 ft 9 kts 84°
2026-05-05 20:45 53.63082 10.00308 49 ft 5 kts 101°
2026-05-05 20:45 53.63077 10.00353 51 ft 3 kts 99°
2026-05-05 20:46 53.63075 10.00376 51 ft 0 kts 99°